Powrót do katalogu

STARLINK-5408

AktywnyŁącznośćVLEO
NORAD 54810·PAYLOAD·🇺🇸 United States

Wystrzelony Dec 17, 2022 z Cape Canaveral Space Force Station

Loading…

Następne Przeloty (najbliższe 24 godziny)

TLE

ŚwieżeSource: CelesTrak SupGP

Epoka: Sep 15, 2026, 02:36 UTC

1 54810C 22175BE  26258.10881944 -.00046674  00000+0 -14163-2 0  2586
2 54810  53.1572 242.9430 0001357  95.8021 169.2042 15.33570645    12

Śledź STARLINK-5408 w czasie rzeczywistym z AllMySat

Download on the App Store